Time,TemperatureF,DewpointF,PressureIn,WindDirection,WindDirectionDegrees,WindSpeedMPH,WindSpeedGustMPH,Humidity,HourlyPrecipIn,Conditions,Clouds,dailyrainin,SoftwareType,DateUTC
2013-03-11 00:00:00,39.5,22.4,30.19,South,189,3.0,9.0,50,0.00,BKN,,0.00,WeatherDisplay:10.37,2013-03-11 04:00:00,
2013-03-11 00:02:00,39.5,22.4,30.19,SSE,158,3.5,3.5,50,0.00,CLR,,0.00,WeatherDisplay:10.37,2013-03-11 04:02:00,
2013-03-11 00:06:00,39.4,22.3,30.19,SE,135,3.5,3.5,50,0.00,CLR,,0.00,WeatherDisplay:10.37,2013-03-11 04:06:00,
2013-03-11 00:12:00,38.8,21.7,30.19,South,180,3.5,3.5,50,0.00,CLR,,0.00,WeatherDisplay:10.37,2013-03-11 04:12:00,
2013-03-11 00:17:00,38.3,21.3,30.19,SSW,202,3.5,3.5,50,0.00,CLR,,0.00,WeatherDisplay:10.37,2013-03-11 04:17:00,
2013-03-11 00:22:00,38.1,21.1,30.19,SW,225,0.0,0.0,50,0.00,CLR,,0.00,WeatherDisplay:10.37,2013-03-11 04:22:00,
2013-03-11 00:27:00,37.9,20.8,30.19,SW,225,1.5,1.5,50,0.00,CLR,,0.00,WeatherDisplay:10.37,2013-03-11 04:27:00,
2013-03-11 00:32:00,37.7,20.7,30.19,South,180,3.0,3.0,50,0.00,CLR,,0.00,WeatherDisplay:10.37,2013-03-11 04:32:00,
2013-03-11 00:37:00,37.7,20.7,30.19,SSW,202,3.5,3.5,50,0.00,CLR,,0.00,WeatherDisplay:10.37,2013-03-11 04:37:00,
2013-03-11 00:42:00,37.8,20.8,30.19,SSW,202,4.6,4.6,50,0.00,CLR,,0.00,WeatherDisplay:10.37,2013-03-11 04:42:00,
2013-03-11 00:47:00,38.0,21.0,30.19,SW,225,3.5,3.5,50,0.00,CLR,,0.00,WeatherDisplay:10.37,2013-03-11 04:47:00,
2013-03-11 00:52:00,37.7,20.7,30.19,SW,225,4.6,4.6,50,0.00,CLR,,0.00,WeatherDisplay:10.37,2013-03-11 04:52:00,
2013-03-11 00:57:00,37.8,20.8,30.19,SW,225,3.5,3.5,50,0.00,CLR,,0.00,WeatherDisplay:10.37,2013-03-11 04:57:00,
2013-03-11 01:01:00,37.7,20.7,30.20,West,270,3.5,3.5,50,0.00,CLR,,0.00,WeatherDisplay:10.37,2013-03-11 05:01:00,
2013-03-11 01:07:00,37.6,20.6,30.20,SSW,202,3.5,3.5,50,0.00,CLR,,0.00,WeatherDisplay:10.37,2013-03-11 05:07:00,
2013-03-11 01:12:00,37.7,20.7,30.20,SSW,202,4.6,4.6,50,0.00,CLR,,0.00,WeatherDisplay:10.37,2013-03-11 05:12:00,
2013-03-11 01:17:00,37.9,20.8,30.20,SSW,202,4.6,4.6,50,0.00,CLR,,0.00,WeatherDisplay:10.37,2013-03-11 05:17:00,
2013-03-11 01:22:00,37.8,20.8,30.20,SSE,158,4.8,4.8,50,0.00,CLR,,0.00,WeatherDisplay:10.37,2013-03-11 05:22:00,
2013-03-11 01:27:00,37.9,20.8,30.20,NW,315,3.5,3.5,50,0.00,CLR,,0.00,WeatherDisplay:10.37,2013-03-11 05:27:00,
2013-03-11 01:32:00,37.6,20.6,30.20,ENE,68,0.0,0.0,50,0.00,CLR,,0.00,WeatherDisplay:10.37,2013-03-11 05:32:00,
2013-03-11 01:37:00,36.9,20.0,30.20,SSW,202,0.0,0.0,50,0.00,CLR,,0.00,WeatherDisplay:10.37,2013-03-11 05:37:00,
2013-03-11 01:42:00,36.6,19.7,30.20,South,180,0.0,0.0,50,0.00,CLR,,0.00,WeatherDisplay:10.37,2013-03-11 05:42:00,
2013-03-11 01:48:00,36.2,19.3,30.20,SW,225,1.2,0.0,50,0.00,CLR,,0.00,WeatherDisplay:10.37,2013-03-11 05:48:00,
2013-03-11 01:53:00,36.2,19.3,30.20,SW,225,0.0,0.0,50,0.00,CLR,,0.00,WeatherDisplay:10.37,2013-03-11 05:53:00,
2013-03-11 01:58:00,36.1,19.2,30.20,South,180,4.6,4.6,50,0.00,CLR,,0.00,WeatherDisplay:10.37,2013-03-11 05:58:00,
2013-03-11 02:03:00,35.7,18.8,30.18,South,180,4.6,4.6,50,0.00,SCT,,0.00,WeatherDisplay:10.37,2013-03-11 06:03:00,
2013-03-11 02:08:00,35.6,18.8,30.18,SW,225,4.6,4.6,50,0.00,SCT,,0.00,WeatherDisplay:10.37,2013-03-11 06:08:00,
2013-03-11 02:13:00,35.4,22.1,30.18,South,180,4.6,4.6,58,0.00,SCT,,0.00,WeatherDisplay:10.37,2013-03-11 06:13:00,
2013-03-11 02:18:00,35.2,21.8,30.18,SSE,158,3.5,3.5,58,0.00,SCT,,0.00,WeatherDisplay:10.37,2013-03-11 06:18:00,
2013-03-11 02:23:00,35.0,21.7,30.18,North,360,1.2,1.2,58,0.00,SCT,,0.00,WeatherDisplay:10.37,2013-03-11 06:23:00,
2013-03-11 02:28:00,34.5,21.2,30.18,SSW,202,0.0,0.0,58,0.00,SCT,,0.00,WeatherDisplay:10.37,2013-03-11 06:28:00,
2013-03-11 02:33:00,34.1,20.8,30.18,SSE,158,0.0,0.0,58,0.00,SCT,,0.00,WeatherDisplay:10.37,2013-03-11 06:33:00,
2013-03-11 02:38:00,33.9,20.6,30.18,SW,225,0.0,0.0,58,0.00,SCT,,0.00,WeatherDisplay:10.37,2013-03-11 06:38:00,
2013-03-11 02:43:00,33.6,20.4,30.18,SW,225,1.7,1.7,58,0.00,SCT,,0.00,WeatherDisplay:10.37,2013-03-11 06:43:00,
2013-03-11 02:48:00,33.5,20.3,30.18,SW,225,1.2,0.0,58,0.00,SCT,,0.00,WeatherDisplay:10.37,2013-03-11 06:48:00,
2013-03-11 02:53:00,33.4,20.1,30.18,WSW,248,3.5,3.5,58,0.00,SCT,,0.00,WeatherDisplay:10.37,2013-03-11 06:53:00,
2013-03-11 02:58:00,33.3,20.1,30.18,SSE,158,4.6,4.6,58,0.00,SCT,,0.00,WeatherDisplay:10.37,2013-03-11 06:58:00,
2013-03-11 03:03:00,33.3,20.1,30.17,SE,135,3.5,3.5,58,0.00,CLR,,0.00,WeatherDisplay:10.37,2013-03-11 07:03:00,
2013-03-11 03:08:00,32.8,19.7,30.17,SW,225,3.5,3.5,58,0.00,CLR,,0.00,WeatherDisplay:10.37,2013-03-11 07:08:00,
2013-03-11 03:13:00,32.9,19.7,30.17,SSE,158,3.5,3.5,58,0.00,CLR,,0.00,WeatherDisplay:10.37,2013-03-11 07:13:00,
2013-03-11 03:18:00,33.0,19.8,30.17,SSE,158,3.5,3.5,58,0.00,CLR,,0.00,WeatherDisplay:10.37,2013-03-11 07:18:00,
2013-03-11 03:23:00,32.7,19.5,30.17,SW,225,3.5,3.5,58,0.00,CLR,,0.00,WeatherDisplay:10.37,2013-03-11 07:23:00,
2013-03-11 03:28:00,32.4,19.2,30.17,WSW,248,3.5,3.5,58,0.00,CLR,,0.00,WeatherDisplay:10.37,2013-03-11 07:28:00,
2013-03-11 03:33:00,32.3,19.1,30.17,SSE,158,5.8,5.8,58,0.00,CLR,,0.00,WeatherDisplay:10.37,2013-03-11 07:33:00,
2013-03-11 03:38:00,32.5,19.4,30.17,SSW,202,4.6,4.6,58,0.00,CLR,,0.00,WeatherDisplay:10.37,2013-03-11 07:38:00,
2013-03-11 03:43:00,32.6,19.5,30.17,SW,225,4.6,4.6,58,0.00,CLR,,0.00,WeatherDisplay:10.37,2013-03-11 07:43:00,
2013-03-11 03:48:00,32.5,19.4,30.17,South,180,3.5,3.5,58,0.00,CLR,,0.00,WeatherDisplay:10.37,2013-03-11 07:48:00,
2013-03-11 03:53:00,32.7,19.6,30.17,SSW,202,4.6,4.6,58,0.00,CLR,,0.00,WeatherDisplay:10.37,2013-03-11 07:53:00,
2013-03-11 03:58:00,32.7,19.6,30.17,South,180,4.6,4.6,58,0.00,CLR,,0.00,WeatherDisplay:10.37,2013-03-11 07:58:00,
2013-03-11 04:03:00,32.9,19.7,30.14,West,270,3.5,3.5,58,0.00,CLR,,0.00,WeatherDisplay:10.37,2013-03-11 08:03:00,
2013-03-11 04:08:00,33.1,19.9,30.14,North,360,4.6,4.6,58,0.00,CLR,,0.00,WeatherDisplay:10.37,2013-03-11 08:08:00,
2013-03-11 04:13:00,33.4,20.1,30.14,WNW,292,4.6,4.6,58,0.00,CLR,,0.00,WeatherDisplay:10.37,2013-03-11 08:13:00,
2013-03-11 04:18:00,33.4,20.1,30.14,SSE,158,5.8,5.8,58,0.00,CLR,,0.00,WeatherDisplay:10.37,2013-03-11 08:18:00,
2013-03-11 04:23:00,33.4,20.1,30.14,SW,225,3.5,3.5,58,0.00,CLR,,0.00,WeatherDisplay:10.37,2013-03-11 08:23:00,
2013-03-11 04:28:00,33.1,19.9,30.14,SSW,202,4.4,4.4,58,0.00,CLR,,0.00,WeatherDisplay:10.37,2013-03-11 08:28:00,
2013-03-11 04:33:00,33.1,19.9,30.14,SSW,202,5.8,5.8,58,0.00,CLR,,0.00,WeatherDisplay:10.37,2013-03-11 08:33:00,
2013-03-11 04:38:00,33.1,19.9,30.14,South,180,7.3,7.3,58,0.00,CLR,,0.00,WeatherDisplay:10.37,2013-03-11 08:38:00,
2013-03-11 04:43:00,33.3,20.1,30.14,SSE,158,5.8,5.8,58,0.00,CLR,,0.00,WeatherDisplay:10.37,2013-03-11 08:43:00,
2013-03-11 04:48:00,33.6,20.4,30.14,South,180,4.6,4.6,58,0.00,CLR,,0.00,WeatherDisplay:10.37,2013-03-11 08:48:00,
2013-03-11 04:53:00,33.3,20.1,30.14,South,180,5.8,5.8,58,0.00,CLR,,0.00,WeatherDisplay:10.37,2013-03-11 08:53:00,
2013-03-11 04:58:00,33.3,20.1,30.14,SW,225,4.6,4.6,58,0.00,CLR,,0.00,WeatherDisplay:10.37,2013-03-11 08:58:00,
2013-03-11 05:03:00,33.1,19.9,30.15,SSE,158,4.9,4.9,58,0.00,CLR,,0.00,WeatherDisplay:10.37,2013-03-11 09:03:00,
2013-03-11 05:08:00,33.2,20.4,30.15,SSW,202,5.8,5.8,59,0.00,CLR,,0.00,WeatherDisplay:10.37,2013-03-11 09:08:00,
2013-03-11 05:13:00,33.3,20.5,30.15,SW,225,8.1,8.1,59,0.00,CLR,,0.00,WeatherDisplay:10.37,2013-03-11 09:13:00,
2013-03-11 05:18:00,33.6,21.2,30.15,SE,135,8.1,8.1,60,0.00,CLR,,0.00,WeatherDisplay:10.37,2013-03-11 09:18:00,
2013-03-11 05:23:00,34.1,21.6,30.15,South,180,8.1,8.1,60,0.00,CLR,,0.00,WeatherDisplay:10.37,2013-03-11 09:23:00,
2013-03-11 05:28:00,34.9,22.4,30.15,SSW,202,6.9,6.9,60,0.00,CLR,,0.00,WeatherDisplay:10.37,2013-03-11 09:28:00,
2013-03-11 05:33:00,35.1,22.6,30.15,SW,225,5.8,5.8,60,0.00,CLR,,0.00,WeatherDisplay:10.37,2013-03-11 09:33:00,
2013-03-11 05:38:00,35.1,22.6,30.15,SSW,202,4.6,4.6,60,0.00,CLR,,0.00,WeatherDisplay:10.37,2013-03-11 09:38:00,
2013-03-11 05:43:00,34.8,22.3,30.15,SSW,202,5.9,5.9,60,0.00,CLR,,0.00,WeatherDisplay:10.37,2013-03-11 09:43:00,
2013-03-11 05:48:00,35.0,22.5,30.15,SW,225,6.9,6.9,60,0.00,CLR,,0.00,WeatherDisplay:10.37,2013-03-11 09:48:00,
2013-03-11 05:53:00,34.9,22.4,30.15,South,180,4.8,4.8,60,0.00,CLR,,0.00,WeatherDisplay:10.37,2013-03-11 09:53:00,
2013-03-11 05:58:00,35.0,22.5,30.15,SW,225,4.6,4.6,60,0.00,CLR,,0.00,WeatherDisplay:10.37,2013-03-11 09:58:00,
2013-03-11 06:03:00,35.2,22.7,30.15,SW,225,4.6,4.6,60,0.00,CLR,,0.00,WeatherDisplay:10.37,2013-03-11 10:03:00,
2013-03-11 06:08:00,35.1,22.6,30.15,SW,225,3.5,3.5,60,0.00,CLR,,0.00,WeatherDisplay:10.37,2013-03-11 10:08:00,
2013-03-11 06:13:00,34.6,22.2,30.15,North,360,3.5,3.5,60,0.00,CLR,,0.00,WeatherDisplay:10.37,2013-03-11 10:13:00,
2013-03-11 06:18:00,34.5,22.0,30.15,SW,225,1.2,1.2,60,0.00,CLR,,0.00,WeatherDisplay:10.37,2013-03-11 10:18:00,
2013-03-11 06:24:00,33.7,21.3,30.15,NNE,22,5.8,5.8,60,0.00,CLR,,0.00,WeatherDisplay:10.37,2013-03-11 10:24:00,
2013-03-11 06:29:00,33.5,21.1,30.15,NNE,22,1.2,1.2,60,0.00,CLR,,0.00,WeatherDisplay:10.37,2013-03-11 10:29:00,
2013-03-11 06:34:00,33.1,20.7,30.15,SE,135,1.6,1.6,60,0.00,CLR,,0.00,WeatherDisplay:10.37,2013-03-11 10:34:00,
2013-03-11 06:39:00,32.9,20.5,30.15,SE,135,3.5,3.5,60,0.00,CLR,,0.00,WeatherDisplay:10.37,2013-03-11 10:39:00,
2013-03-11 06:44:00,32.6,20.3,30.15,SSW,202,3.5,3.5,60,0.00,CLR,,0.00,WeatherDisplay:10.37,2013-03-11 10:44:00,
2013-03-11 06:49:00,32.3,19.9,30.15,East,90,0.0,0.0,60,0.00,CLR,,0.00,WeatherDisplay:10.37,2013-03-11 10:49:00,
2013-03-11 06:54:00,32.2,19.8,30.15,SSW,202,4.6,4.6,60,0.00,CLR,,0.00,WeatherDisplay:10.37,2013-03-11 10:54:00,
2013-03-11 06:59:00,32.2,19.8,30.15,South,180,4.6,4.6,60,0.00,CLR,,0.00,WeatherDisplay:10.37,2013-03-11 10:59:00,
2013-03-11 07:04:00,32.3,19.9,30.15,South,180,4.6,4.6,60,0.00,FEW,,0.00,WeatherDisplay:10.37,2013-03-11 11:04:00,
2013-03-11 07:09:00,32.7,20.3,30.15,South,180,4.6,4.6,60,0.00,FEW,,0.00,WeatherDisplay:10.37,2013-03-11 11:09:00,
2013-03-11 07:14:00,32.8,20.5,30.15,South,180,4.6,4.6,60,0.00,FEW,,0.00,WeatherDisplay:10.37,2013-03-11 11:14:00,
2013-03-11 07:20:00,33.2,20.8,30.15,SW,225,4.6,4.6,60,0.00,FEW,,0.00,WeatherDisplay:10.37,2013-03-11 11:20:00,
2013-03-11 07:25:00,33.2,20.8,30.15,SSW,202,5.9,5.9,60,0.00,FEW,,0.00,WeatherDisplay:10.37,2013-03-11 11:25:00,
2013-03-11 07:30:00,33.0,20.6,30.15,SSW,202,4.6,4.6,60,0.00,FEW,,0.00,WeatherDisplay:10.37,2013-03-11 11:30:00,
2013-03-11 07:35:00,33.2,20.8,30.15,South,180,4.6,4.6,60,0.00,FEW,,0.00,WeatherDisplay:10.37,2013-03-11 11:35:00,
2013-03-11 07:40:00,33.5,21.1,30.15,SSE,158,8.1,8.1,60,0.00,FEW,,0.00,WeatherDisplay:10.37,2013-03-11 11:40:00,
2013-03-11 07:46:00,33.9,21.4,30.15,SSE,158,5.8,5.8,60,0.00,FEW,,0.00,WeatherDisplay:10.37,2013-03-11 11:46:00,
2013-03-11 07:52:00,34.3,21.8,30.15,SE,135,5.8,5.8,60,0.00,FEW,,0.00,WeatherDisplay:10.37,2013-03-11 11:52:00,
2013-03-11 07:57:00,34.4,21.9,30.15,SSW,202,4.6,4.6,60,0.00,FEW,,0.00,WeatherDisplay:10.37,2013-03-11 11:57:00,
2013-03-11 08:02:00,34.5,22.5,30.13,SE,135,4.9,4.9,61,0.00,CLR,,0.00,WeatherDisplay:10.37,2013-03-11 12:02:00,
2013-03-11 08:08:00,34.8,23.4,30.13,SSE,158,5.8,5.8,63,0.00,CLR,,0.00,WeatherDisplay:10.37,2013-03-11 12:08:00,
2013-03-11 08:13:00,35.1,24.1,30.13,SSW,202,6.9,6.9,64,0.00,CLR,,0.00,WeatherDisplay:10.37,2013-03-11 12:13:00,
2013-03-11 08:18:00,35.9,24.9,30.13,SSW,202,5.8,5.8,64,0.00,CLR,,0.00,WeatherDisplay:10.37,2013-03-11 12:18:00,
2013-03-11 08:23:00,36.7,25.6,30.13,South,180,5.8,5.8,64,0.00,CLR,,0.00,WeatherDisplay:10.37,2013-03-11 12:23:00,
2013-03-11 08:28:00,37.5,26.4,30.13,WSW,248,4.6,4.6,64,0.00,CLR,,0.00,WeatherDisplay:10.37,2013-03-11 12:28:00,
2013-03-11 08:33:00,37.9,26.8,30.13,South,180,6.9,6.9,64,0.00,CLR,,0.00,WeatherDisplay:10.37,2013-03-11 12:33:00,
2013-03-11 08:38:00,38.3,27.2,30.13,WSW,248,10.4,10.4,64,0.00,CLR,,0.00,WeatherDisplay:10.37,2013-03-11 12:38:00,
2013-03-11 08:43:00,38.6,27.4,30.13,South,180,7.6,7.6,64,0.00,CLR,,0.00,WeatherDisplay:10.37,2013-03-11 12:43:00,
2013-03-11 08:48:00,38.8,27.7,30.13,SW,225,6.9,6.9,64,0.00,CLR,,0.00,WeatherDisplay:10.37,2013-03-11 12:48:00,
2013-03-11 08:53:00,39.2,28.0,30.13,South,180,6.5,6.5,64,0.00,CLR,,0.00,WeatherDisplay:10.37,2013-03-11 12:53:00,
2013-03-11 08:59:00,40.2,28.9,30.13,SW,225,4.6,4.6,64,0.00,CLR,,0.00,WeatherDisplay:10.37,2013-03-11 12:59:00,
2013-03-11 09:04:00,40.7,29.4,30.14,SSW,202,8.1,8.1,64,0.00,SCT,,0.00,WeatherDisplay:10.37,2013-03-11 13:04:00,
2013-03-11 09:09:00,41.5,30.2,30.14,South,180,4.9,4.9,64,0.00,SCT,,0.00,WeatherDisplay:10.37,2013-03-11 13:09:00,
2013-03-11 09:15:00,41.8,30.5,30.14,West,270,13.8,13.8,64,0.00,SCT,,0.00,WeatherDisplay:10.37,2013-03-11 13:15:00,
2013-03-11 09:20:00,42.1,30.8,30.14,South,180,5.8,5.8,64,0.00,SCT,,0.00,WeatherDisplay:10.37,2013-03-11 13:20:00,
2013-03-11 09:26:00,42.6,31.2,30.14,SE,135,9.2,9.2,64,0.00,SCT,,0.00,WeatherDisplay:10.37,2013-03-11 13:26:00,
2013-03-11 09:32:00,43.8,32.4,30.14,South,180,4.6,4.6,64,0.00,SCT,,0.00,WeatherDisplay:10.37,2013-03-11 13:32:00,
2013-03-11 09:38:00,44.8,33.3,30.14,SW,225,4.6,4.6,64,0.00,SCT,,0.00,WeatherDisplay:10.37,2013-03-11 13:38:00,
2013-03-11 09:43:00,45.6,34.1,30.14,SW,225,6.9,6.9,64,0.00,SCT,,0.00,WeatherDisplay:10.37,2013-03-11 13:43:00,
2013-03-11 09:48:00,46.1,34.6,30.14,SSE,158,9.2,9.2,64,0.00,SCT,,0.00,WeatherDisplay:10.37,2013-03-11 13:48:00,
2013-03-11 09:53:00,46.6,35.1,30.14,NW,315,1.6,1.6,64,0.00,SCT,,0.00,WeatherDisplay:10.37,2013-03-11 13:53:00,
2013-03-11 09:58:00,46.7,35.2,30.14,WSW,248,3.5,3.5,64,0.00,SCT,,0.00,WeatherDisplay:10.37,2013-03-11 13:58:00,
2013-03-11 10:03:00,47.1,35.6,30.14,SSW,202,3.5,3.5,64,0.00,CLR,,0.00,WeatherDisplay:10.37,2013-03-11 14:03:00,
2013-03-11 10:08:00,47.7,36.1,30.14,West,270,1.2,0.0,64,0.00,CLR,,0.00,WeatherDisplay:10.37,2013-03-11 14:08:00,
2013-03-11 10:14:00,48.0,36.4,30.14,South,180,4.6,4.6,64,0.00,CLR,,0.00,WeatherDisplay:10.37,2013-03-11 14:14:00,
2013-03-11 10:19:00,48.9,37.3,30.14,SSW,202,4.6,4.6,64,0.00,CLR,,0.00,WeatherDisplay:10.37,2013-03-11 14:19:00,
2013-03-11 10:24:00,49.6,37.9,30.14,South,180,4.6,4.6,64,0.00,CLR,,0.00,WeatherDisplay:10.37,2013-03-11 14:24:00,
2013-03-11 10:29:00,50.2,38.5,30.14,SSW,202,4.6,4.6,64,0.00,CLR,,0.00,WeatherDisplay:10.37,2013-03-11 14:29:00,
2013-03-11 10:34:00,50.5,38.7,30.14,SE,135,4.6,4.6,64,0.00,CLR,,0.00,WeatherDisplay:10.37,2013-03-11 14:34:00,
2013-03-11 10:39:00,50.3,38.6,30.14,South,180,5.8,5.8,64,0.00,CLR,,0.00,WeatherDisplay:10.37,2013-03-11 14:39:00,
2013-03-11 10:44:00,50.6,38.8,30.14,South,180,4.9,4.9,64,0.00,CLR,,0.00,WeatherDisplay:10.37,2013-03-11 14:44:00,
2013-03-11 10:49:00,51.0,39.3,30.14,South,180,4.9,4.9,64,0.00,CLR,,0.00,WeatherDisplay:10.37,2013-03-11 14:49:00,
2013-03-11 10:54:00,51.0,39.2,30.14,ESE,112,4.6,4.6,64,0.00,CLR,,0.00,WeatherDisplay:10.37,2013-03-11 14:54:00,
2013-03-11 10:59:00,51.0,39.3,30.14,NW,315,5.8,5.8,64,0.00,CLR,,0.00,WeatherDisplay:10.37,2013-03-11 14:59:00,
2013-03-11 11:04:00,51.1,39.3,30.14,SW,225,4.6,4.6,64,0.00,CLR,,0.00,WeatherDisplay:10.37,2013-03-11 15:04:00,
2013-03-11 11:09:00,51.1,49.7,30.14,West,270,3.5,3.5,95,0.00,CLR,,0.00,WeatherDisplay:10.37,2013-03-11 15:09:00,
2013-03-11 11:14:00,52.1,35.0,30.14,SE,135,1.7,1.7,52,0.00,CLR,,0.00,WeatherDisplay:10.37,2013-03-11 15:14:00,
2013-03-11 11:19:00,53.1,35.9,30.14,SSE,158,5.8,5.8,52,0.00,CLR,,0.00,WeatherDisplay:10.37,2013-03-11 15:19:00,
2013-03-11 11:24:00,53.4,36.2,30.14,SW,225,9.2,9.2,52,0.00,CLR,,0.00,WeatherDisplay:10.37,2013-03-11 15:24:00,
2013-03-11 11:29:00,53.5,36.3,30.13,South,180,10.4,10.4,52,0.00,CLR,,0.00,WeatherDisplay:10.37,2013-03-11 15:29:00,
2013-03-11 11:34:00,53.4,36.2,30.13,SSW,202,9.2,9.2,52,0.00,CLR,,0.00,WeatherDisplay:10.37,2013-03-11 15:34:00,
2013-03-11 11:39:00,53.5,36.3,30.13,South,180,4.6,4.6,52,0.00,CLR,,0.00,WeatherDisplay:10.37,2013-03-11 15:39:00,
2013-03-11 11:44:00,53.9,36.6,30.13,SSW,202,6.9,6.9,52,0.00,CLR,,0.00,WeatherDisplay:10.37,2013-03-11 15:44:00,
2013-03-11 11:49:00,54.2,36.9,30.13,SW,225,3.5,3.5,52,0.00,CLR,,0.00,WeatherDisplay:10.37,2013-03-11 15:49:00,
2013-03-11 11:54:00,54.5,37.2,30.13,SSW,202,5.8,5.8,52,0.00,CLR,,0.00,WeatherDisplay:10.37,2013-03-11 15:54:00,
2013-03-11 12:00:00,54.8,28.4,30.13,South,179,2.0,9.0,36,0.00,CLR,,0.00,WeatherDisplay:10.37,2013-03-11 16:00:00,
2013-03-11 12:05:00,53.8,36.6,30.13,NW,315,10.4,10.4,52,0.00,BKN,,0.00,WeatherDisplay:10.37,2013-03-11 16:05:00,
2013-03-11 12:10:00,52.9,35.8,30.13,NNW,338,5.8,5.8,52,0.00,BKN,,0.00,WeatherDisplay:10.37,2013-03-11 16:10:00,
2013-03-11 12:15:00,52.6,35.5,30.13,WNW,292,8.1,8.1,52,0.00,BKN,,0.00,WeatherDisplay:10.37,2013-03-11 16:15:00,
2013-03-11 12:20:00,51.8,34.7,30.13,WNW,292,8.1,8.1,52,0.00,BKN,,0.00,WeatherDisplay:10.37,2013-03-11 16:20:00,
2013-03-11 12:25:00,51.7,34.6,30.13,NW,315,4.6,4.6,52,0.00,BKN,,0.00,WeatherDisplay:10.37,2013-03-11 16:25:00,
2013-03-11 12:30:00,52.0,34.9,30.13,South,180,1.2,1.2,52,0.00,BKN,,0.00,WeatherDisplay:10.37,2013-03-11 16:30:00,
2013-03-11 12:35:00,52.6,35.4,30.13,WSW,248,1.5,1.5,52,0.00,BKN,,0.00,WeatherDisplay:10.37,2013-03-11 16:35:00,
2013-03-11 12:40:00,52.8,35.7,30.13,SSW,202,3.5,3.5,52,0.00,BKN,,0.00,WeatherDisplay:10.37,2013-03-11 16:40:00,
2013-03-11 12:45:00,53.0,19.9,30.13,SSW,202,6.9,6.9,27,0.00,BKN,,0.00,WeatherDisplay:10.37,2013-03-11 16:45:00,
2013-03-11 12:50:00,53.2,-33.4,30.13,NW,315,4.6,4.6,2,0.00,BKN,,0.00,WeatherDisplay:10.37,2013-03-11 16:50:00,
2013-03-11 12:55:00,53.6,36.4,30.13,WSW,248,3.5,3.5,52,0.00,BKN,,0.00,WeatherDisplay:10.37,2013-03-11 16:55:00,
2013-03-11 13:00:00,54.2,37.0,30.13,SSE,158,3.5,3.5,52,0.00,BKN,,0.00,WeatherDisplay:10.37,2013-03-11 17:00:00,
2013-03-11 13:05:00,53.1,34.4,30.12,North,360,9.2,9.2,49,0.00,OVC,,0.00,WeatherDisplay:10.37,2013-03-11 17:05:00,
2013-03-11 13:10:00,52.4,33.8,30.12,NW,315,7.8,7.8,49,0.00,OVC,,0.00,WeatherDisplay:10.37,2013-03-11 17:10:00,
2013-03-11 13:15:00,52.8,34.1,30.12,NW,315,10.4,10.4,49,0.00,OVC,,0.00,WeatherDisplay:10.37,2013-03-11 17:15:00,
2013-03-11 13:20:00,52.6,34.0,30.12,NE,45,5.8,5.8,49,0.00,OVC,,0.00,WeatherDisplay:10.37,2013-03-11 17:20:00,
2013-03-11 13:25:00,53.8,35.1,30.12,NNW,338,2.9,2.9,49,0.00,OVC,,0.00,WeatherDisplay:10.37,2013-03-11 17:25:00,
2013-03-11 13:30:00,54.4,35.7,30.12,NW,315,3.5,3.5,49,0.00,OVC,,0.00,WeatherDisplay:10.37,2013-03-11 17:30:00,
2013-03-11 13:35:00,54.6,35.8,30.12,NW,315,5.8,5.8,49,0.00,OVC,,0.00,WeatherDisplay:10.37,2013-03-11 17:35:00,
2013-03-11 13:40:00,54.4,35.6,30.12,West,270,4.6,4.6,49,0.00,OVC,,0.00,WeatherDisplay:10.37,2013-03-11 17:40:00,
2013-03-11 13:45:00,54.4,35.7,30.12,NW,315,6.9,6.9,49,0.00,OVC,,0.00,WeatherDisplay:10.37,2013-03-11 17:45:00,
2013-03-11 13:50:00,54.0,35.2,30.12,NNW,338,6.9,6.9,49,0.00,OVC,,0.00,WeatherDisplay:10.37,2013-03-11 17:50:00,
2013-03-11 13:55:00,54.4,35.6,30.12,NW,315,4.6,4.6,49,0.00,OVC,,0.00,WeatherDisplay:10.37,2013-03-11 17:55:00,
2013-03-11 14:00:00,54.3,35.6,30.12,WNW,292,4.4,4.4,49,0.00,OVC,,0.00,WeatherDisplay:10.37,2013-03-11 18:00:00,
2013-03-11 14:05:00,54.4,30.0,30.10,WNW,292,4.6,4.6,39,0.00,BKN,,0.00,WeatherDisplay:10.37,2013-03-11 18:05:00,
2013-03-11 14:10:00,54.8,30.3,30.10,NW,315,4.8,4.8,39,0.00,BKN,,0.00,WeatherDisplay:10.37,2013-03-11 18:10:00,
2013-03-11 14:15:00,54.2,29.8,30.10,NNW,338,10.4,10.4,39,0.00,BKN,,0.00,WeatherDisplay:10.37,2013-03-11 18:15:00,
2013-03-11 14:20:00,53.9,29.5,30.10,NNE,22,4.7,4.7,39,0.00,BKN,,0.00,WeatherDisplay:10.37,2013-03-11 18:20:00,
2013-03-11 14:25:00,53.8,41.9,30.10,ENE,68,3.5,3.5,64,0.00,BKN,,0.00,WeatherDisplay:10.37,2013-03-11 18:25:00,
2013-03-11 14:30:00,53.9,49.8,30.10,NW,315,4.6,4.6,86,0.00,BKN,,0.00,WeatherDisplay:10.37,2013-03-11 18:30:00,
2013-03-11 14:35:00,53.0,49.0,30.10,West,270,8.1,8.1,86,0.00,BKN,,0.00,WeatherDisplay:10.37,2013-03-11 18:35:00,
2013-03-11 14:40:00,52.9,48.9,30.10,NNW,338,4.6,4.6,86,0.00,BKN,,0.00,WeatherDisplay:10.37,2013-03-11 18:40:00,
2013-03-11 14:45:00,53.3,39.3,30.10,North,360,1.3,1.3,59,0.00,BKN,,0.00,WeatherDisplay:10.37,2013-03-11 18:45:00,
2013-03-11 14:50:00,53.4,21.9,30.10,NW,315,9.2,9.2,29,0.00,BKN,,0.00,WeatherDisplay:10.37,2013-03-11 18:50:00,
2013-03-11 14:55:00,53.4,29.1,30.10,NW,315,10.4,10.4,39,0.00,BKN,,0.00,WeatherDisplay:10.37,2013-03-11 18:55:00,
2013-03-11 15:00:00,53.7,29.3,30.10,WNW,292,1.2,1.2,39,0.00,BKN,,0.00,WeatherDisplay:10.37,2013-03-11 19:00:00,
2013-03-11 15:05:00,54.3,25.1,30.08,West,270,6.9,6.9,32,0.00,SCT,,0.00,WeatherDisplay:10.37,2013-03-11 19:05:00,
2013-03-11 15:10:00,54.1,24.8,30.08,NE,45,5.8,5.8,32,0.00,SCT,,0.00,WeatherDisplay:10.37,2013-03-11 19:10:00,
2013-03-11 15:15:00,53.2,24.1,30.08,NW,315,8.1,8.1,32,0.00,SCT,,0.00,WeatherDisplay:10.37,2013-03-11 19:15:00,
2013-03-11 15:20:00,54.1,24.9,30.08,East,90,0.0,0.0,32,0.00,SCT,,0.00,WeatherDisplay:10.37,2013-03-11 19:20:00,
2013-03-11 15:25:00,54.4,25.1,30.08,SSE,158,8.1,8.1,32,0.00,SCT,,0.00,WeatherDisplay:10.37,2013-03-11 19:25:00,
2013-03-11 15:30:00,54.8,25.5,30.08,West,270,9.2,9.2,32,0.00,SCT,,0.00,WeatherDisplay:10.37,2013-03-11 19:30:00,
2013-03-11 15:35:00,55.0,25.6,30.08,NW,315,5.9,5.9,32,0.00,SCT,,0.00,WeatherDisplay:10.37,2013-03-11 19:35:00,
2013-03-11 15:40:00,54.8,25.5,30.08,WNW,292,7.3,7.3,32,0.00,SCT,,0.00,WeatherDisplay:10.37,2013-03-11 19:40:00,
2013-03-11 15:45:00,54.0,24.8,30.08,NW,315,5.8,5.8,32,0.00,SCT,,0.00,WeatherDisplay:10.37,2013-03-11 19:45:00,
2013-03-11 15:50:00,54.4,25.2,30.08,NNW,338,0.0,0.0,32,0.00,SCT,,0.00,WeatherDisplay:10.37,2013-03-11 19:50:00,
2013-03-11 15:55:00,54.2,24.9,30.08,WNW,292,4.8,4.8,32,0.00,SCT,,0.00,WeatherDisplay:10.37,2013-03-11 19:55:00,
2013-03-11 16:00:00,53.5,24.3,30.08,NW,315,4.6,4.6,32,0.00,SCT,,0.00,WeatherDisplay:10.37,2013-03-11 20:00:00,
2013-03-11 16:05:00,53.4,36.2,30.06,WNW,292,1.2,0.0,52,0.00,CLR,,0.00,WeatherDisplay:10.37,2013-03-11 20:05:00,
2013-03-11 16:10:00,53.3,48.9,30.06,WNW,292,4.6,4.6,85,0.00,CLR,,0.00,WeatherDisplay:10.37,2013-03-11 20:10:00,
2013-03-11 16:15:00,52.9,48.5,30.06,SSW,202,4.6,4.6,85,0.00,CLR,,0.00,WeatherDisplay:10.37,2013-03-11 20:15:00,
2013-03-11 16:20:00,52.9,48.5,30.06,SSW,202,5.8,5.8,85,0.00,CLR,,0.00,WeatherDisplay:10.37,2013-03-11 20:20:00,
2013-03-11 16:25:00,53.1,48.7,30.06,SSE,158,6.9,6.9,85,0.00,CLR,,0.00,WeatherDisplay:10.37,2013-03-11 20:25:00,
2013-03-11 16:30:00,53.2,25.5,30.06,SE,135,10.4,10.4,34,0.00,CLR,,0.00,WeatherDisplay:10.37,2013-03-11 20:30:00,
2013-03-11 16:35:00,52.9,25.9,30.06,South,180,9.2,9.2,35,0.00,CLR,,0.00,WeatherDisplay:10.37,2013-03-11 20:35:00,
2013-03-11 16:40:00,52.2,24.6,30.06,NNE,22,5.8,5.8,34,0.00,CLR,,0.00,WeatherDisplay:10.37,2013-03-11 20:40:00,
2013-03-11 16:45:00,51.4,23.9,30.06,NW,315,4.6,4.6,34,0.00,CLR,,0.00,WeatherDisplay:10.37,2013-03-11 20:45:00,
2013-03-11 16:50:00,50.7,23.3,30.06,ENE,68,7.4,7.4,34,0.00,CLR,,0.00,WeatherDisplay:10.37,2013-03-11 20:50:00,
2013-03-11 16:55:00,50.0,22.7,30.06,East,90,5.8,5.8,34,0.00,CLR,,0.00,WeatherDisplay:10.37,2013-03-11 20:55:00,
2013-03-11 17:00:00,49.2,22.0,30.06,NE,45,6.9,6.9,34,0.00,CLR,,0.00,WeatherDisplay:10.37,2013-03-11 21:00:00,
2013-03-11 17:05:00,49.0,21.9,30.03,West,270,4.6,4.6,34,0.00,SCT,,0.00,WeatherDisplay:10.37,2013-03-11 21:05:00,
2013-03-11 17:10:00,48.8,22.3,30.03,South,180,14.0,14.0,35,0.00,SCT,,0.00,WeatherDisplay:10.37,2013-03-11 21:10:00,
2013-03-11 17:15:00,48.7,22.9,30.03,South,180,4.6,4.6,36,0.00,SCT,,0.00,WeatherDisplay:10.37,2013-03-11 21:15:00,
2013-03-11 17:20:00,48.6,22.8,30.03,SSE,158,11.7,11.7,36,0.00,SCT,,0.00,WeatherDisplay:10.37,2013-03-11 21:20:00,
2013-03-11 17:25:00,48.7,22.9,30.03,South,180,6.0,6.0,36,0.00,SCT,,0.00,WeatherDisplay:10.37,2013-03-11 21:25:00,
2013-03-11 17:30:00,48.5,22.7,30.03,East,90,9.2,9.2,36,0.00,SCT,,0.00,WeatherDisplay:10.37,2013-03-11 21:30:00,
2013-03-11 17:35:00,48.1,22.4,30.03,ESE,112,12.7,12.7,36,0.00,SCT,,0.00,WeatherDisplay:10.37,2013-03-11 21:35:00,
2013-03-11 17:40:00,47.8,22.1,30.03,ESE,112,15.0,15.0,36,0.00,SCT,,0.00,WeatherDisplay:10.37,2013-03-11 21:40:00,
2013-03-11 17:45:00,47.4,22.4,30.03,East,90,18.4,18.4,37,0.00,SCT,,0.00,WeatherDisplay:10.37,2013-03-11 21:45:00,
2013-03-11 17:50:00,47.2,22.3,30.03,ESE,112,11.5,11.5,37,0.00,SCT,,0.00,WeatherDisplay:10.37,2013-03-11 21:50:00,
2013-03-11 17:55:00,46.7,21.8,30.03,West,270,0.0,0.0,37,0.00,SCT,,0.00,WeatherDisplay:10.37,2013-03-11 21:55:00,
2013-03-11 18:00:00,46.1,21.2,30.03,SW,225,5.8,5.8,37,0.00,SCT,,0.00,WeatherDisplay:10.37,2013-03-11 22:00:00,
2013-03-11 18:05:00,45.4,20.7,30.03,East,90,10.4,10.4,37,0.00,CLR,,0.00,WeatherDisplay:10.37,2013-03-11 22:05:00,
2013-03-11 18:10:00,45.4,20.6,30.03,SE,135,6.0,6.0,37,0.00,CLR,,0.00,WeatherDisplay:10.37,2013-03-11 22:10:00,
2013-03-11 18:15:00,45.4,20.7,30.03,SE,135,9.2,9.2,37,0.00,CLR,,0.00,WeatherDisplay:10.37,2013-03-11 22:15:00,
2013-03-11 18:20:00,45.3,20.6,30.03,South,180,11.5,11.5,37,0.00,CLR,,0.00,WeatherDisplay:10.37,2013-03-11 22:20:00,
2013-03-11 18:25:00,45.2,26.7,30.03,SE,135,15.0,15.0,48,0.00,CLR,,0.00,WeatherDisplay:10.37,2013-03-11 22:25:00,
2013-03-11 18:30:00,45.1,26.5,30.03,SE,135,8.1,8.1,48,0.00,CLR,,0.00,WeatherDisplay:10.37,2013-03-11 22:30:00,
2013-03-11 18:35:00,45.0,26.5,30.03,East,90,12.7,12.7,48,0.00,CLR,,0.00,WeatherDisplay:10.37,2013-03-11 22:35:00,
2013-03-11 18:40:00,44.7,26.2,30.03,SW,225,4.6,4.6,48,0.00,CLR,,0.00,WeatherDisplay:10.37,2013-03-11 22:40:00,
2013-03-11 18:45:00,44.2,25.7,30.03,SE,135,4.6,4.6,48,0.00,CLR,,0.00,WeatherDisplay:10.37,2013-03-11 22:45:00,
2013-03-11 18:50:00,43.8,25.3,30.03,SSE,158,4.5,4.5,48,0.00,CLR,,0.00,WeatherDisplay:10.37,2013-03-11 22:50:00,
2013-03-11 18:55:00,43.5,25.1,30.03,SE,135,8.1,8.1,48,0.00,CLR,,0.00,WeatherDisplay:10.37,2013-03-11 22:55:00,
2013-03-11 19:00:00,43.3,24.9,30.03,ESE,112,4.6,4.6,48,0.00,CLR,,0.00,WeatherDisplay:10.37,2013-03-11 23:00:00,
2013-03-11 19:05:00,42.9,24.5,30.04,ESE,112,6.9,6.9,48,0.00,SCT,,0.00,WeatherDisplay:10.37,2013-03-11 23:05:00,
2013-03-11 19:10:00,42.4,24.0,30.04,NE,45,10.4,10.4,48,0.00,SCT,,0.00,WeatherDisplay:10.37,2013-03-11 23:10:00,
2013-03-11 19:15:00,42.3,24.0,30.04,ESE,112,9.2,9.2,48,0.00,SCT,,0.00,WeatherDisplay:10.37,2013-03-11 23:15:00,
2013-03-11 19:20:00,42.1,23.8,30.04,ESE,112,13.8,13.8,48,0.00,SCT,,0.00,WeatherDisplay:10.37,2013-03-11 23:20:00,
2013-03-11 19:25:00,42.0,23.7,30.04,NNE,22,8.1,8.1,48,0.00,SCT,,0.00,WeatherDisplay:10.37,2013-03-11 23:25:00,
2013-03-11 19:30:00,41.7,23.4,30.04,NE,45,5.8,5.8,48,0.00,SCT,,0.00,WeatherDisplay:10.37,2013-03-11 23:30:00,
2013-03-11 19:35:00,41.6,23.3,30.04,SE,135,7.5,7.5,48,0.00,SCT,,0.00,WeatherDisplay:10.37,2013-03-11 23:35:00,
2013-03-11 19:40:00,41.6,23.3,30.04,SE,135,6.9,6.9,48,0.00,SCT,,0.00,WeatherDisplay:10.37,2013-03-11 23:40:00,
2013-03-11 19:45:00,41.1,22.9,30.04,South,180,11.5,11.5,48,0.00,SCT,,0.00,WeatherDisplay:10.37,2013-03-11 23:45:00,
2013-03-11 19:50:00,41.1,22.8,30.04,East,90,4.6,4.6,48,0.00,SCT,,0.00,WeatherDisplay:10.37,2013-03-11 23:50:00,
2013-03-11 19:55:00,41.2,22.9,30.04,SE,135,6.9,6.9,48,0.00,SCT,,0.00,WeatherDisplay:10.37,2013-03-11 23:55:00,
2013-03-11 20:00:00,41.0,22.8,30.04,East,90,8.1,8.1,48,0.00,SCT,,0.00,WeatherDisplay:10.37,2013-03-12 00:00:00,
2013-03-11 20:05:00,40.9,23.2,30.03,SE,135,8.1,8.1,49,0.00,FEW,,0.00,WeatherDisplay:10.37,2013-03-12 00:05:00,
2013-03-11 20:10:00,41.0,23.8,30.03,South,180,8.1,8.1,50,0.00,FEW,,0.00,WeatherDisplay:10.37,2013-03-12 00:10:00,
2013-03-11 20:15:00,40.7,23.5,30.03,SSW,202,6.9,6.9,50,0.00,FEW,,0.00,WeatherDisplay:10.37,2013-03-12 00:15:00,
2013-03-11 20:20:00,40.7,23.9,30.03,ESE,112,8.1,8.1,51,0.00,FEW,,0.00,WeatherDisplay:10.37,2013-03-12 00:20:00,
2013-03-11 20:25:00,40.3,23.6,30.03,East,90,5.9,5.9,51,0.00,FEW,,0.00,WeatherDisplay:10.37,2013-03-12 00:25:00,
2013-03-11 20:30:00,40.4,23.7,30.03,East,90,6.9,6.9,51,0.00,FEW,,0.00,WeatherDisplay:10.37,2013-03-12 00:30:00,
2013-03-11 20:36:00,40.2,23.5,30.03,East,90,5.8,5.8,51,0.00,FEW,,0.00,WeatherDisplay:10.37,2013-03-12 00:36:00,
2013-03-11 20:41:00,40.3,24.1,30.03,ENE,68,5.8,5.8,52,0.00,FEW,,0.00,WeatherDisplay:10.37,2013-03-12 00:41:00,
2013-03-11 20:46:00,40.2,23.9,30.03,SSE,158,3.5,3.5,52,0.00,FEW,,0.00,WeatherDisplay:10.37,2013-03-12 00:46:00,
2013-03-11 20:51:00,40.3,24.1,30.03,SSE,158,10.4,10.4,52,0.00,FEW,,0.00,WeatherDisplay:10.37,2013-03-12 00:51:00,
2013-03-11 20:56:00,40.2,24.0,30.03,NNE,22,6.9,6.9,52,0.00,FEW,,0.00,WeatherDisplay:10.37,2013-03-12 00:56:00,
2013-03-11 21:02:00,39.9,23.7,30.03,SE,135,5.8,5.8,52,0.00,CLR,,0.00,WeatherDisplay:10.37,2013-03-12 01:02:00,
2013-03-11 21:08:00,40.2,23.9,30.03,ESE,112,5.8,5.8,52,0.00,CLR,,0.00,WeatherDisplay:10.37,2013-03-12 01:08:00,
2013-03-11 21:13:00,40.2,24.0,30.03,NNE,22,4.6,4.6,52,0.00,CLR,,0.00,WeatherDisplay:10.37,2013-03-12 01:13:00,
2013-03-11 21:18:00,39.7,23.4,30.03,ENE,68,4.6,4.6,52,0.00,CLR,,0.00,WeatherDisplay:10.37,2013-03-12 01:18:00,
2013-03-11 21:23:00,39.4,23.2,30.03,NW,315,0.0,0.0,52,0.00,CLR,,0.00,WeatherDisplay:10.37,2013-03-12 01:23:00,
2013-03-11 21:28:00,39.2,23.0,30.03,ESE,112,3.0,3.0,52,0.00,CLR,,0.00,WeatherDisplay:10.37,2013-03-12 01:28:00,
2013-03-11 21:33:00,39.3,23.1,30.03,SSW,202,4.6,4.6,52,0.00,CLR,,0.00,WeatherDisplay:10.37,2013-03-12 01:33:00,
2013-03-11 21:38:00,39.1,22.9,30.03,West,270,6.9,6.9,52,0.00,CLR,,0.00,WeatherDisplay:10.37,2013-03-12 01:38:00,
2013-03-11 21:43:00,39.0,22.9,30.03,NNW,338,3.5,3.5,52,0.00,CLR,,0.00,WeatherDisplay:10.37,2013-03-12 01:43:00,
2013-03-11 21:48:00,39.0,22.9,30.03,SW,225,0.0,0.0,52,0.00,CLR,,0.00,WeatherDisplay:10.37,2013-03-12 01:48:00,
2013-03-11 21:53:00,38.9,22.8,30.03,East,90,3.3,3.3,52,0.00,CLR,,0.00,WeatherDisplay:10.37,2013-03-12 01:53:00,
2013-03-11 21:58:00,38.9,22.7,30.03,NE,45,3.5,3.5,52,0.00,CLR,,0.00,WeatherDisplay:10.37,2013-03-12 01:58:00,
2013-03-11 22:03:00,38.6,22.5,30.01,SW,225,1.2,0.0,52,0.00,SCT,,0.00,WeatherDisplay:10.37,2013-03-12 02:03:00,
2013-03-11 22:08:00,38.7,23.5,30.01,South,180,3.5,3.5,54,0.00,SCT,,0.00,WeatherDisplay:10.37,2013-03-12 02:08:00,
2013-03-11 22:13:00,38.9,23.6,30.01,SE,135,3.5,3.5,54,0.00,SCT,,0.00,WeatherDisplay:10.37,2013-03-12 02:13:00,
2013-03-11 22:18:00,39.0,24.2,30.01,WNW,292,2.3,2.3,55,0.00,SCT,,0.00,WeatherDisplay:10.37,2013-03-12 02:18:00,
2013-03-11 22:23:00,38.8,24.0,30.01,South,180,1.5,1.5,55,0.00,SCT,,0.00,WeatherDisplay:10.37,2013-03-12 02:23:00,
2013-03-11 22:28:00,38.6,24.3,30.01,SSW,202,3.0,3.0,56,0.00,SCT,,0.00,WeatherDisplay:10.37,2013-03-12 02:28:00,
2013-03-11 22:33:00,38.5,24.1,30.01,SE,135,3.5,3.5,56,0.00,SCT,,0.00,WeatherDisplay:10.37,2013-03-12 02:33:00,
2013-03-11 22:39:00,38.4,24.1,30.01,SW,225,3.5,3.5,56,0.00,SCT,,0.00,WeatherDisplay:10.37,2013-03-12 02:39:00,
2013-03-11 22:44:00,38.2,23.9,30.01,WSW,248,1.6,1.6,56,0.00,SCT,,0.00,WeatherDisplay:10.37,2013-03-12 02:44:00,
2013-03-11 22:49:00,37.9,23.5,30.01,WSW,248,3.5,3.5,56,0.00,SCT,,0.00,WeatherDisplay:10.37,2013-03-12 02:49:00,
2013-03-11 22:54:00,37.7,23.4,30.01,SW,225,1.2,1.2,56,0.00,SCT,,0.00,WeatherDisplay:10.37,2013-03-12 02:54:00,
2013-03-11 22:59:00,37.7,23.4,30.01,SW,225,1.2,1.2,56,0.00,SCT,,0.00,WeatherDisplay:10.37,2013-03-12 02:59:00,
2013-03-11 23:04:00,37.9,23.5,30.00,SW,225,3.5,3.5,56,0.00,FEW,,0.00,WeatherDisplay:10.37,2013-03-12 03:04:00,
2013-03-11 23:09:00,38.1,23.8,30.00,SW,225,3.5,3.5,56,0.00,FEW,,0.00,WeatherDisplay:10.37,2013-03-12 03:09:00,
2013-03-11 23:14:00,38.2,23.9,30.00,WSW,248,1.2,0.0,56,0.00,FEW,,0.00,WeatherDisplay:10.37,2013-03-12 03:14:00,
2013-03-11 23:19:00,38.4,24.1,30.00,SE,135,3.5,3.5,56,0.00,FEW,,0.00,WeatherDisplay:10.37,2013-03-12 03:19:00,
2013-03-11 23:24:00,38.4,24.1,30.00,South,180,3.5,3.5,56,0.00,FEW,,0.00,WeatherDisplay:10.37,2013-03-12 03:24:00,
2013-03-11 23:29:00,38.4,24.1,30.00,WNW,292,1.6,1.6,56,0.00,FEW,,0.00,WeatherDisplay:10.37,2013-03-12 03:29:00,
2013-03-11 23:34:00,38.5,24.2,30.00,ESE,112,4.9,4.9,56,0.00,FEW,,0.00,WeatherDisplay:10.37,2013-03-12 03:34:00,
2013-03-11 23:39:00,38.5,24.2,30.00,SSE,158,3.5,3.5,56,0.00,FEW,,0.00,WeatherDisplay:10.37,2013-03-12 03:39:00,
2013-03-11 23:44:00,39.0,24.6,30.00,West,270,9.2,9.2,56,0.00,FEW,,0.00,WeatherDisplay:10.37,2013-03-12 03:44:00,
2013-03-11 23:49:00,38.9,24.5,30.00,NW,315,11.5,11.5,56,0.00,FEW,,0.00,WeatherDisplay:10.37,2013-03-12 03:49:00,
2013-03-11 23:54:00,39.1,24.7,30.00,South,180,10.4,10.4,56,0.00,FEW,,0.00,WeatherDisplay:10.37,2013-03-12 03:54:00,
2013-03-11 23:59:00,38.9,24.5,30.00,SE,135,5.8,5.8,56,0.00,FEW,,0.00,WeatherDisplay:10.37,2013-03-12 03:59:00,